When you browse on this site, cookies collect data to enhance your experience and personalize the content and advertising you see.
Visit our Privacy Policy to learn more. By continuing to use the site, you agree to this use of cookies and data.

Hourly Weather Burgas

Today, 2 July, Thursday

Time Temperature Precipitation Wind Pressure Humidity
00:00 +23°C° 0 mm 2 mps 758 mmHg 94%
01:00 +23°C° 0 mm 2 mps 758 mmHg 94%
02:00 +22°C° 0 mm 1 mps 757 mmHg 94%
03:00 +22°C° 0 mm 1 mps 757 mmHg 94%
04:00 +22°C° 0 mm 1 mps 757 mmHg 94%
05:00 +22°C° 0 mm 1 mps 757 mmHg 95%
06:00 +24°C° 0 mm 2 mps 757 mmHg 89%
07:00 +25°C° 0 mm 2 mps 757 mmHg 84%
08:00 +27°C° 0 mm 2 mps 757 mmHg 79%
09:00 +28°C° 0 mm 3 mps 757 mmHg 73%
10:00 +29°C° 0 mm 4 mps 757 mmHg 67%
11:00 +30°C° 0 mm 4 mps 757 mmHg 60%
12:00 +30°C° 0 mm 4 mps 757 mmHg 59%
13:00 +32°C° 0 mm 4 mps 757 mmHg 58%
14:00 +32°C° 0 mm 4 mps 757 mmHg 57%
15:00 +30°C° 0 mm 4 mps 757 mmHg 58%
16:00 +30°C° 0 mm 4 mps 756 mmHg 59%
17:00 +29°C° 0 mm 4 mps 756 mmHg 60%
18:00 +27°C° 0 mm 4 mps 756 mmHg 66%
19:00 +25°C° 0 mm 3 mps 756 mmHg 73%
20:00 +24°C° 0 mm 3 mps 756 mmHg 80%
21:00 +23°C° 0 mm 2 mps 756 mmHg 82%
22:00 +21°C° 0 mm 2 mps 756 mmHg 85%
23:00 +22°C° 0 mm 1 mps 756 mmHg 88%

Tomorrow, 3 July, Friday

Time Temperature Precipitation Wind Pressure Humidity
00:00 +21°C° 0 mm 1 mps 756 mmHg 87%
01:00 +21°C° 0 mm 1 mps 756 mmHg 87%
02:00 +21°C° 0 mm 1 mps 756 mmHg 87%
03:00 +21°C° 0 mm 1 mps 756 mmHg 87%
04:00 +20°C° 0 mm 1 mps 755 mmHg 87%
05:00 +20°C° 0 mm 1 mps 755 mmHg 87%
06:00 +22°C° 0 mm 1 mps 755 mmHg 80%
07:00 +24°C° 0 mm 1 mps 755 mmHg 74%
08:00 +26°C° 0 mm 1 mps 756 mmHg 68%
09:00 +28°C° 0 mm 2 mps 756 mmHg 62%
10:00 +29°C° 0 mm 2 mps 756 mmHg 57%
11:00 +30°C° 0 mm 3 mps 756 mmHg 51%
12:00 +31°C° 0 mm 3 mps 755 mmHg 51%
13:00 +31°C° 0 mm 3 mps 755 mmHg 51%
14:00 +33°C° 0 mm 3 mps 755 mmHg 51%
15:00 +31°C° 0 mm 3 mps 755 mmHg 54%
16:00 +30°C° 0 mm 3 mps 755 mmHg 57%
17:00 +30°C° 0 mm 3 mps 755 mmHg 60%
18:00 +28°C° 0 mm 3 mps 755 mmHg 69%
19:00 +26°C° 0 mm 2 mps 755 mmHg 78%
20:00 +24°C° 0 mm 2 mps 755 mmHg 87%
21:00 +23°C° 0 mm 1 mps 755 mmHg 87%
22:00 +23°C° 0 mm 1 mps 756 mmHg 88%
23:00 +20°C° 0 mm 0 mps 756 mmHg 89%

Day after tomorrow, 4 July, Saturday

Time Temperature Precipitation Wind Pressure Humidity
00:00 +22°C° 0 mm 1 mps 756 mmHg 89%
01:00 +22°C° 0 mm 1 mps 756 mmHg 89%
02:00 +22°C° 0 mm 1 mps 756 mmHg 89%
03:00 +22°C° 0 mm 1 mps 756 mmHg 89%
04:00 +21°C° 0 mm 1 mps 756 mmHg 89%
05:00 +21°C° 0 mm 1 mps 756 mmHg 89%
06:00 +23°C° 0 mm 1 mps 756 mmHg 82%
07:00 +25°C° 0 mm 1 mps 756 mmHg 75%
08:00 +28°C° 0 mm 1 mps 757 mmHg 68%
09:00 +29°C° 0 mm 1 mps 757 mmHg 62%
10:00 +30°C° 0 mm 2 mps 757 mmHg 56%
11:00 +32°C° 0 mm 2 mps 757 mmHg 51%
12:00 +32°C° 0 mm 2 mps 756 mmHg 49%
13:00 +34°C° 0 mm 3 mps 756 mmHg 48%
14:00 +34°C° 0 mm 3 mps 756 mmHg 47%
15:00 +33°C° 0 mm 3 mps 756 mmHg 50%
16:00 +33°C° 0 mm 3 mps 755 mmHg 53%
17:00 +31°C° 0 mm 3 mps 755 mmHg 55%
18:00 +29°C° 0 mm 3 mps 755 mmHg 64%
19:00 +27°C° 0 mm 2 mps 755 mmHg 72%
20:00 +25°C° 0 mm 1 mps 755 mmHg 80%
21:00 +24°C° 0 mm 1 mps 755 mmHg 81%
22:00 +24°C° 0 mm 1 mps 756 mmHg 82%
23:00 +21°C° 0 mm 0 mps 756 mmHg 83%

5 July, Sunday

Time Temperature Precipitation Wind Pressure Humidity
00:00 +23°C° 0 mm 1 mps 755 mmHg 84%
01:00 +23°C° 0 mm 1 mps 755 mmHg 84%
02:00 +22°C° 0 mm 1 mps 755 mmHg 84%
03:00 +22°C° 0 mm 1 mps 755 mmHg 85%
04:00 +22°C° 0 mm 1 mps 755 mmHg 86%
05:00 +22°C° 0 mm 1 mps 755 mmHg 87%
06:00 +24°C° 0 mm 2 mps 755 mmHg 79%
07:00 +26°C° 0 mm 2 mps 755 mmHg 72%
08:00 +28°C° 0 mm 2 mps 755 mmHg 64%
09:00 +29°C° 0 mm 3 mps 755 mmHg 59%
10:00 +31°C° 0 mm 3 mps 755 mmHg 54%
11:00 +33°C° 0 mm 4 mps 755 mmHg 49%
12:00 +34°C° 0 mm 4 mps 755 mmHg 47%
13:00 +34°C° 0 mm 4 mps 754 mmHg 44%
14:00 +35°C° 0 mm 5 mps 754 mmHg 41%
15:00 +34°C° 0 mm 5 mps 754 mmHg 44%
16:00 +33°C° 0 mm 5 mps 754 mmHg 46%
17:00 +33°C° 0 mm 4 mps 754 mmHg 48%
18:00 +30°C° 0 mm 4 mps 754 mmHg 56%
19:00 +27°C° 0 mm 3 mps 754 mmHg 64%
20:00 +25°C° 0 mm 2 mps 754 mmHg 71%
21:00 +25°C° 0 mm 2 mps 754 mmHg 73%
22:00 +24°C° 0 mm 2 mps 754 mmHg 75%
23:00 +24°C° 0 mm 2 mps 754 mmHg 77%

6 July, Monday

Time Temperature Precipitation Wind Pressure Humidity
00:00 +23°C° 0 mm 2 mps 754 mmHg 78%
01:00 +23°C° 0 mm 2 mps 754 mmHg 80%
02:00 +23°C° 0 mm 2 mps 754 mmHg 81%
03:00 +23°C° 0 mm 2 mps 754 mmHg 82%
04:00 +21°C° 0 mm 2 mps 754 mmHg 83%
05:00 +21°C° 0 mm 3 mps 754 mmHg 84%
06:00 +24°C° 0 mm 3 mps 754 mmHg 75%
07:00 +26°C° 0 mm 3 mps 755 mmHg 67%
08:00 +28°C° 0 mm 4 mps 755 mmHg 59%
09:00 +30°C° 0 mm 4 mps 755 mmHg 56%
10:00 +32°C° 0 mm 5 mps 755 mmHg 54%
11:00 +34°C° 0 mm 6 mps 755 mmHg 51%
12:00 +34°C° 0 mm 6 mps 754 mmHg 50%
13:00 +35°C° 0 mm 7 mps 754 mmHg 49%
14:00 +35°C° 0 mm 7 mps 754 mmHg 49%
15:00 +34°C° 0 mm 7 mps 754 mmHg 52%
16:00 +33°C° 0 mm 7 mps 753 mmHg 56%
17:00 +33°C° 0 mm 7 mps 753 mmHg 59%
18:00 +30°C° 0 mm 6 mps 753 mmHg 67%
19:00 +28°C° 0 mm 4 mps 753 mmHg 75%
20:00 +26°C° 0 mm 3 mps 753 mmHg 83%
21:00 +25°C° 0 mm 3 mps 753 mmHg 84%
22:00 +25°C° 0 mm 3 mps 753 mmHg 85%
23:00 +24°C° 0 mm 2 mps 753 mmHg 86%

7 July, Tuesday

Time Temperature Precipitation Wind Pressure Humidity
00:00 +24°C° 0 mm 2 mps 753 mmHg 85%
01:00 +24°C° 0 mm 2 mps 753 mmHg 84%
02:00 +23°C° 0 mm 2 mps 753 mmHg 83%
03:00 +23°C° 0 mm 2 mps 752 mmHg 82%
04:00 +23°C° 0 mm 2 mps 752 mmHg 82%
05:00 +23°C° 0 mm 2 mps 752 mmHg 81%
06:00 +25°C° 0 mm 2 mps 752 mmHg 74%
07:00 +27°C° 0 mm 2 mps 752 mmHg 68%
08:00 +29°C° 0 mm 2 mps 752 mmHg 61%
09:00 +31°C° 0 mm 3 mps 752 mmHg 56%
10:00 +33°C° 0 mm 4 mps 752 mmHg 51%
11:00 +35°C° 0 mm 4 mps 752 mmHg 46%
12:00 +35°C° 0 mm 4 mps 752 mmHg 45%
13:00 +36°C° 0 mm 4 mps 752 mmHg 43%
14:00 +36°C° 0 mm 4 mps 751 mmHg 41%
15:00 +36°C° 0 mm 4 mps 751 mmHg 44%
16:00 +35°C° 0 mm 4 mps 751 mmHg 48%
17:00 +34°C° 0 mm 3 mps 751 mmHg 51%
18:00 +31°C° 0 mm 2 mps 751 mmHg 57%
19:00 +29°C° 0 mm 2 mps 751 mmHg 63%
20:00 +27°C° 0 mm 1 mps 751 mmHg 68%
21:00 +27°C° 0.2 mm 1 mps 752 mmHg 71%
22:00 +26°C° 0.2 mm 1 mps 752 mmHg 73%
23:00 +25°C° 0.2 mm 1 mps 753 mmHg 75%
Show more